Zurück zum Katalog

STARLINK-5540

AktivKommunikationSSO
NORAD 56340·PAYLOAD·🇺🇸 United States

Gestartet Apr 27, 2023 von Vandenberg Space Force Base

Loading…

Nächste Überflüge (nächste 24 Stunden)

TLE

AktuellSource: CelesTrak SupGP

Epoche: Sep 14, 2026, 20:59 UTC

1 56340C 23058Z   26257.87479167  .00064127  00000+0  19894-2 0  2576
2 56340  97.2849 254.7683 0001876  95.1731  27.0850 15.33426895    11

Verfolge STARLINK-5540 in Echtzeit mit AllMySat

Download on the App Store